Location: Boca de Tacagua
(10.5333°N, 66.9833°W)
Time: 04:13:13
(UTC+00:00)

Cosmos 1536 - Pass Details

Date: 04 July 2022
Orbit: 536 x 556 km, 82.5° (Epoch: 14 August)

Event Time Altitude Azimuth Distance (km) Brightness Sun altitude
Exits shadow 08:39:54 54° 193° (SSW) 672 2.9 -20.9°
Maximum altitude 08:40:46 84° 275° (W) 558 2.7 -20.7°
Drops below altitude 10° 08:44:48 10° 2° (N) 1,827 5.9 -19.8°
Sets 08:46:58 0° 3° (N) 2,723 6.8 -19.3°
